Theta_e
333 323 318 317 304 304 298 299 303 304 305 311 312 310 310 312 314 311 337 340 335 341 356 362 363 363 362 362 360 360 359 360 361 362 362 362 361 361 360 359 357 354 352 348 344 341 339 338 338
331 318 316 311 301 296 298 301 302 305 310 312 311 310 309 309 317 325 333 338 336 345 359 358 363 362 363 362 361 360 359 359 360 360 361 360 360 360 359 358 356 353 350 346 343 341 339 339 339
326 321 310 308 302 295 297 302 305 308 310 308 309 312 312 320 330 323 338 336 337 344 353 359 362 362 362 361 361 360 359 359 359 359 359 359 358 358 357 357 356 352 348 346 343 341 341 340 339
318 320 311 301 298 299 300 305 307 307 310 311 312 308 314 330 332 337 337 335 336 340 349 358 361 361 362 361 361 360 359 359 359 359 358 358 358 357 356 356 355 352 349 346 344 344 342 341 340
316 313 302 300 298 301 303 307 307 306 308 312 312 311 313 325 339 337 337 334 334 340 347 356 361 361 362 361 361 359 359 358 358 358 358 358 358 356 355 355 354 353 351 349 346 345 345 345 342
310 309 299 295 296 302 306 308 307 308 311 313 313 312 315 332 335 334 335 335 336 341 347 352 360 360 360 360 359 359 358 358 358 358 358 358 357 356 355 355 354 353 351 349 347 347 346 345 345
307 304 298 297 297 301 305 309 308 311 312 312 316 311 317 324 334 335 336 337 338 343 345 353 355 359 359 359 358 358 358 357 357 357 357 357 357 356 355 354 353 352 350 349 347 347 347 346 345
313 306 300 300 298 299 307 310 312 312 312 318 317 311 313 323 335 335 336 337 339 341 342 348 353 354 354 355 359 358 358 358 357 357 357 357 357 356 355 352 352 352 351 349 348 348 347 346 345
316 304 300 301 301 302 310 309 313 316 314 315 316 316 319 324 334 333 333 334 335 338 343 347 348 351 352 350 353 358 358 358 358 358 357 356 354 355 353 351 351 352 351 350 349 349 348 348 346
308 303 303 307 308 306 309 310 310 310 311 312 314 317 318 320 325 331 330 329 331 333 339 345 348 349 350 347 351 352 351 353 355 354 355 355 354 354 351 350 350 351 351 349 350 349 349 346 341
305 301 307 308 310 310 308 308 310 309 308 311 310 312 315 318 321 323 325 330 330 333 337 342 348 350 348 344 346 348 348 349 353 354 355 355 352 352 350 347 347 347 348 341 344 344 341 340 341
300 304 307 309 310 306 306 307 305 307 309 312 311 313 314 316 317 319 321 323 329 333 335 339 346 346 349 346 344 344 345 346 346 348 353 351 349 347 346 343 342 345 341 342 342 340 342 343 342
299 299 301 302 301 302 303 302 303 303 308 309 311 312 312 313 316 320 322 325 328 333 336 337 344 348 347 347 344 344 344 343 344 345 347 346 343 343 342 342 340 339 340 339 340 340 341 341 341
298 298 299 299 300 301 300 302 302 304 306 307 309 309 309 309 311 315 316 320 324 330 336 341 342 347 347 346 347 344 344 344 343 342 343 345 343 342 339 339 338 338 339 338 338 338 338 339 338
298 294 296 298 299 299 300 297 298 301 304 305 306 307 308 309 310 311 314 317 320 323 328 333 344 345 346 346 346 345 343 342 341 341 344 344 344 343 341 338 337 337 340 341 340 340 339 337 338
294 293 291 295 297 299 299 292 299 302 302 302 303 305 306 308 309 311 313 315 319 322 328 328 332 346 345 346 344 342 342 342 342 341 342 344 344 344 342 337 337 338 338 338 337 337 336 336 336
291 287 289 292 297 297 296 292 298 302 301 301 303 303 304 306 309 312 312 314 316 320 323 327 331 333 347 348 344 343 343 340 340 341 340 343 343 341 339 336 336 341 335 337 337 337 338 337 336
288 289 290 290 295 297 295 295 298 300 301 301 301 302 303 304 306 309 311 315 317 319 322 325 326 331 336 347 347 344 342 341 340 340 340 342 342 341 341 337 337 339 335 338 338 339 339 338 337
292 290 290 293 296 295 294 294 296 299 299 300 301 302 303 304 305 307 312 316 316 319 321 322 323 332 329 334 340 341 341 342 342 343 342 342 343 342 340 338 338 341 339 340 341 339 338 336 339
291 290 290 293 296 294 294 293 296 298 299 300 302 302 303 302 303 308 312 314 315 316 318 321 321 326 326 325 337 340 343 344 344 345 345 344 342 339 340 340 341 344 341 343 342 338 337 337 339
291 290 290 289 293 295 293 290 293 297 299 300 302 302 302 302 304 309 310 311 313 314 316 318 321 322 323 327 329 338 343 343 342 343 343 345 344 343 343 341 345 345 344 342 341 341 340 336 337
288 295 292 290 289 284 292 283 290 294 295 298 299 301 302 305 307 308 309 310 312 312 314 316 319 322 322 326 327 336 333 334 341 343 345 346 346 346 346 346 346 347 345 345 343 343 341 341 337
290 295 292 291 289 288 287 285 289 293 292 295 299 300 304 306 307 307 308 310 312 313 314 315 319 320 322 323 324 325 335 337 343 344 349 349 348 349 347 347 347 346 344 346 346 343 341 341 340
295 292 290 289 288 282 286 286 287 290 293 295 299 301 304 306 306 308 310 311 312 314 315 317 317 320 320 321 322 326 332 339 339 340 339 340 342 345 348 346 346 348 348 347 346 346 344 343 343
292 289 283 281 281 281 288 285 288 293 296 297 298 300 305 306 306 307 308 309 311 313 315 317 318 317 319 320 321 322 328 336 341 342 341 344 343 344 350 351 350 348 349 349 349 347 345 343 341
290 289 283 275 278 281 286 282 288 295 298 299 301 304 305 305 306 307 309 310 311 312 315 317 317 317 319 320 320 322 326 327 337 343 343 343 344 348 355 351 350 350 350 350 349 347 346 346 343
288 286 289 284 284 281 284 288 293 296 296 298 300 302 302 304 306 307 309 310 311 313 315 316 317 318 320 321 322 322 325 329 335 344 348 343 349 347 350 350 350 350 350 350 350 347 347 345 343
291 293 285 286 277 276 282 284 285 291 293 297 298 300 302 304 305 307 308 310 312 313 315 316 317 317 318 321 325 324 325 328 335 341 345 345 349 348 348 349 350 350 350 350 350 348 348 344 337
289 288 289 287 286 279 278 283 293 293 295 296 299 301 301 302 304 306 307 309 311 312 312 315 315 315 316 319 322 328 330 329 334 340 342 344 349 348 347 348 350 349 349 349 349 348 344 338 338
292 290 290 284 282 285 284 284 296 296 297 299 299 300 302 303 306 306 307 308 310 311 311 312 313 314 315 318 321 323 330 331 334 338 340 345 346 347 346 348 349 348 348 349 347 343 340 338 338
Wind_Speed
5 5 3 1 4 2 2 2 3 5 3 3 5 6 7 8 8 4 4 16 19 24 22 24 23 23 21 19 18 17 17 18 18 18 17 17 17 16 15 14 13 14 13 11 10 9 9 9 10
5 1 3 1 4 6 3 2 7 3 4 11 9 6 8 10 18 12 2 17 22 25 20 22 21 22 22 20 19 17 17 18 18 18 18 17 17 16 16 14 14 14 13 12 11 10 10 9 9
1 2 2 2 3 8 1 5 4 7 10 5 5 4 4 5 9 7 3 17 20 24 23 20 22 21 22 21 20 18 18 18 19 19 19 18 17 17 16 15 14 14 14 13 12 11 10 9 9
2 1 4 4 11 2 3 3 5 8 3 2 8 6 4 5 12 9 4 18 20 23 22 21 20 19 20 22 21 20 19 19 20 20 20 19 19 18 17 16 15 14 14 14 12 11 11 10 9
2 1 3 4 1 3 4 8 4 8 7 10 9 8 5 13 15 6 13 18 21 21 21 21 19 18 19 20 21 20 19 18 19 19 19 19 18 17 17 17 16 15 14 13 12 11 10 10 9
2 2 4 9 4 5 7 8 5 5 5 8 12 7 5 11 15 8 8 13 16 19 19 20 19 17 17 17 18 19 18 17 17 17 17 17 17 17 17 16 16 15 14 14 13 12 10 10 9
3 3 4 3 3 8 10 5 3 5 6 5 13 4 9 17 11 5 5 7 13 16 17 17 18 16 16 16 16 16 16 15 15 14 13 13 14 14 15 14 14 14 14 14 13 12 10 9 8
2 3 4 5 6 12 3 4 1 1 4 8 8 7 10 16 6 3 5 7 9 11 14 16 16 17 16 16 14 14 15 14 13 12 12 13 12 12 12 11 12 13 13 13 13 13 12 10 9
4 6 10 8 9 3 3 9 2 3 9 10 4 5 9 13 3 1 4 7 7 9 11 12 14 14 14 14 14 13 15 14 13 12 13 11 10 12 12 11 10 13 12 13 13 13 12 11 9
7 10 13 7 5 5 1 5 1 5 11 12 6 10 11 12 7 7 2 6 8 11 11 11 12 12 12 10 11 13 13 12 12 12 13 11 11 9 9 8 11 11 11 11 12 12 11 11 6
4 12 5 7 6 3 3 5 3 7 12 4 13 16 14 11 11 6 5 6 10 11 7 11 10 9 12 11 9 7 7 8 9 14 12 11 9 8 8 6 6 8 11 7 10 9 9 10 6
7 7 10 10 9 3 6 3 6 12 15 5 11 10 10 10 11 11 8 7 3 11 13 14 13 9 11 8 9 9 8 8 8 10 12 8 6 7 7 6 7 7 6 8 8 6 8 9 9
7 2 5 4 6 6 6 11 12 11 10 10 9 10 8 9 9 9 8 8 12 7 10 14 16 15 12 12 9 7 8 8 8 8 9 8 8 7 7 6 6 7 7 7 7 8 7 8 9
3 3 7 3 4 4 8 15 2 5 6 9 5 6 8 10 9 8 12 8 8 9 7 7 13 13 14 13 12 9 8 9 8 8 7 10 8 7 7 7 7 7 7 7 7 7 7 7 7
2 3 5 7 7 7 2 12 8 1 6 12 6 1 6 8 7 9 8 8 7 5 7 7 9 10 12 14 14 12 11 10 9 8 9 11 10 10 10 8 8 8 7 8 7 8 7 7 7
2 1 6 1 3 5 8 12 4 6 8 11 8 1 4 6 5 6 8 9 10 8 7 9 9 8 12 12 10 9 10 11 11 11 10 14 13 12 10 8 8 8 7 7 8 8 7 7 7
2 4 5 2 3 3 5 2 2 4 6 7 9 4 1 3 4 7 8 9 9 9 9 7 7 7 10 11 9 9 9 10 10 9 10 13 14 13 8 7 7 8 6 7 7 7 8 6 7
3 3 1 4 2 7 8 7 8 11 9 8 7 7 5 3 4 9 8 9 9 9 9 9 8 6 7 8 7 7 9 10 10 11 11 13 9 12 10 8 7 6 7 7 8 9 7 6 6
2 3 3 2 1 9 9 14 14 14 10 12 9 8 5 5 3 4 8 10 11 10 11 10 11 10 6 4 5 7 9 8 10 11 14 13 13 14 12 8 7 10 10 10 10 8 8 7 5
5 3 3 4 3 6 12 18 16 18 13 15 13 10 7 3 4 4 6 9 13 12 12 13 12 11 8 6 6 7 6 7 8 10 12 14 14 9 8 9 9 13 8 10 11 11 7 7 7
3 3 3 4 4 9 9 16 7 3 8 9 6 4 4 4 4 8 10 10 11 13 14 13 13 12 10 10 7 7 7 6 6 9 10 13 17 17 14 10 12 12 10 9 11 12 12 8 7
5 4 2 4 8 7 4 7 6 7 6 4 3 5 4 3 3 4 7 11 12 12 11 14 15 15 11 11 10 10 9 11 9 9 9 10 14 15 15 15 15 14 10 10 11 10 10 8 8
2 2 1 5 10 6 5 7 0 4 3 2 5 3 3 3 5 9 10 10 11 12 12 13 13 14 13 11 11 10 11 10 10 9 10 11 11 14 16 16 15 13 10 10 11 11 12 10 8
3 2 3 1 3 6 0 5 4 6 8 0 4 3 4 6 6 9 10 11 11 11 13 14 16 14 14 12 12 12 13 13 11 8 7 8 8 10 14 15 14 14 12 12 11 12 13 11 8
2 5 5 3 4 3 1 9 7 6 10 9 8 10 5 7 10 12 13 13 13 14 15 15 16 17 15 15 15 13 15 16 15 13 10 10 9 10 14 16 15 12 12 12 11 11 11 12 10
1 3 4 5 4 6 3 10 2 1 5 7 8 5 8 9 8 8 11 13 14 15 15 17 17 17 17 18 18 15 15 12 11 14 12 11 11 12 12 15 14 13 13 11 11 9 9 10 10
4 6 3 6 3 7 6 7 10 10 9 4 6 6 8 14 15 15 13 11 12 14 16 18 18 17 18 20 17 17 16 16 14 15 13 12 12 10 13 14 13 13 13 13 12 9 11 10 10
5 9 4 3 5 6 6 13 10 9 10 6 7 8 13 18 18 16 15 14 13 13 13 16 18 18 17 20 18 16 17 16 16 15 15 14 11 12 13 14 14 14 13 14 13 10 10 11 6
6 7 2 1 4 4 6 4 2 5 6 10 10 11 15 20 18 16 17 16 16 16 16 16 16 19 18 17 19 20 18 18 16 16 15 15 14 15 15 14 15 15 15 14 13 11 12 10 10
5 9 11 6 7 5 5 8 8 10 9 6 13 19 20 16 14 15 16 17 16 19 19 17 17 18 19 17 18 21 21 19 17 16 16 15 16 16 15 15 15 15 15 15 14 13 12 12 12
Wind_Direction
329 342 92 280 221 256 237 220 295 190 208 226 284 229 217 266 204 220 18 179 149 152 161 168 169 167 166 164 162 159 153 147 149 148 148 146 146 149 150 151 156 155 153 154 151 144 139 134 128
328 252 91 93 234 229 205 203 224 224 289 314 285 235 244 249 242 269 219 166 166 151 157 170 174 168 165 166 165 165 160 155 156 153 152 154 155 157 156 159 164 160 159 160 159 155 150 144 134
118 304 115 210 225 230 197 196 194 291 302 260 309 262 261 332 339 245 108 159 163 155 160 168 173 173 167 167 169 168 167 165 164 160 162 161 161 163 163 166 169 167 166 166 167 163 157 154 145
110 180 108 243 223 304 253 160 221 305 308 245 332 289 296 17 318 310 173 159 166 159 160 159 169 175 173 169 172 170 173 174 170 168 169 169 168 169 169 170 171 172 172 171 174 170 167 166 155
89 271 192 248 14 307 285 301 269 302 289 321 342 331 330 350 330 326 166 161 170 160 161 162 168 177 179 176 174 173 176 181 178 175 176 173 173 174 174 173 174 176 176 175 180 179 176 166 166
154 255 191 233 130 217 203 287 313 294 310 325 348 334 17 353 6 7 156 163 169 164 162 165 168 178 180 184 178 177 178 183 184 183 180 178 178 177 179 178 179 178 181 178 182 184 184 175 172
227 187 210 145 178 223 206 161 285 309 305 3 335 346 339 2 4 22 100 150 165 166 164 165 174 181 184 186 186 183 179 183 187 183 183 185 186 185 184 182 184 185 186 184 185 185 190 188 179
187 223 197 197 210 251 227 149 265 316 328 334 347 6 346 346 356 78 125 109 151 172 175 173 176 183 192 191 192 189 187 185 189 185 187 192 190 194 194 191 194 193 193 190 188 187 191 197 194
131 222 228 211 196 223 245 190 215 330 299 327 312 15 324 339 329 321 142 144 154 178 182 183 182 186 194 199 197 194 195 194 190 192 193 187 203 198 199 204 199 202 198 197 197 194 192 199 202
196 226 221 183 184 235 177 261 41 299 296 306 284 322 329 338 353 346 238 194 190 198 199 187 191 194 195 203 207 205 206 205 203 205 200 205 202 208 203 204 208 215 208 206 207 205 200 205 215
182 236 221 202 188 215 229 222 234 281 280 290 324 326 339 346 344 342 311 234 213 198 212 201 192 200 205 206 207 207 210 207 207 210 202 202 199 201 204 204 202 215 207 216 207 208 223 225 226
231 218 225 237 256 255 249 324 256 263 269 305 310 311 320 349 353 342 317 340 307 213 200 190 197 193 209 216 217 216 216 217 215 210 205 204 207 201 212 210 207 211 216 214 220 218 230 237 235
198 230 256 253 283 274 285 261 267 278 287 294 306 309 344 10 14 16 6 344 338 311 245 210 187 186 201 213 222 230 231 227 232 222 210 212 211 211 209 216 218 219 218 220 217 224 220 227 236
143 210 273 297 252 244 260 266 256 266 307 289 325 18 48 35 28 32 31 19 16 334 336 248 218 208 191 192 205 221 224 227 222 223 220 209 215 205 211 212 224 230 229 224 230 222 223 225 238
145 260 265 240 240 251 245 272 246 317 267 273 236 210 34 21 32 28 15 10 13 349 307 310 247 233 224 206 205 203 211 219 227 225 208 211 211 211 210 213 218 219 222 232 232 229 226 231 227
228 232 257 79 217 240 201 248 153 13 11 321 340 55 14 5 355 13 1 352 355 356 344 352 285 235 225 227 231 223 216 210 211 210 211 211 215 213 213 211 229 215 211 217 225 226 220 229 226
157 213 209 265 5 6 222 244 176 15 333 310 311 319 114 333 339 12 3 357 355 351 354 322 1 316 260 239 228 227 233 231 220 210 216 215 211 192 200 206 192 227 209 210 224 225 223 217 226
170 183 174 274 38 331 299 274 298 303 293 285 282 291 299 286 329 340 351 356 350 349 357 350 346 342 306 260 239 234 232 229 227 220 213 214 205 203 178 222 199 209 206 211 214 222 212 219 229
173 192 211 246 132 325 301 293 290 278 261 267 259 262 257 253 320 333 341 340 346 348 349 351 335 330 343 314 259 237 239 230 231 230 220 201 196 209 191 198 201 216 214 208 210 204 209 213 206
184 190 188 265 273 312 295 292 283 271 253 238 237 221 232 276 293 331 344 348 349 337 343 338 334 328 327 304 272 259 252 234 235 233 223 214 206 194 196 197 201 225 210 210 209 198 191 211 191
197 216 191 265 305 266 295 275 207 239 242 218 212 239 235 253 316 338 349 346 340 339 335 330 324 314 314 308 291 264 257 242 231 229 227 215 200 191 195 194 210 215 210 208 205 203 199 195 187
221 186 230 274 315 302 331 285 240 277 214 240 215 275 255 323 332 331 346 341 334 330 323 319 316 313 310 315 303 273 259 254 237 233 234 224 210 194 188 195 203 210 202 205 205 204 197 200 183
120 188 282 289 287 296 247 252 323 201 150 91 309 250 232 323 340 343 344 340 330 332 328 318 304 302 301 304 296 285 264 254 251 240 231 215 206 197 191 188 193 201 205 201 202 195 195 198 191
121 216 300 172 244 242 157 260 174 194 181 287 306 286 300 335 344 339 333 330 334 336 334 326 315 303 296 302 297 282 266 255 248 230 218 200 196 200 199 192 191 200 200 193 198 197 195 196 197
128 336 307 254 222 302 160 289 253 234 240 280 294 305 335 322 334 333 333 335 335 335 334 332 322 309 299 298 291 279 268 258 248 238 229 211 200 198 199 191 189 192 195 189 192 190 194 196 196
207 278 258 285 275 316 256 254 176 333 290 286 280 285 310 329 332 318 313 320 325 327 324 331 328 317 306 299 293 285 271 261 250 240 232 222 214 201 193 187 186 180 185 187 184 182 193 190 202
135 211 22 261 253 274 247 271 268 280 271 313 275 296 334 336 330 324 312 308 317 317 319 321 322 319 310 304 295 286 276 260 249 243 230 223 219 211 191 183 178 175 181 177 173 181 187 187 186
245 141 182 186 246 254 255 275 257 283 302 333 314 300 326 332 329 323 317 312 306 309 303 311 313 315 313 305 298 286 277 266 247 240 230 222 207 200 190 177 172 172 174 172 176 181 180 178 161
168 192 163 273 238 261 294 254 244 274 307 313 306 307 311 320 322 314 313 312 306 308 309 306 310 311 314 307 302 294 284 271 246 233 223 213 204 193 190 180 168 169 168 167 178 174 171 164 169
242 243 215 223 188 229 283 275 283 258 274 276 303 304 309 309 304 307 310 310 305 312 312 310 311 306 309 305 300 294 288 273 244 226 216 206 203 192 183 177 170 165 168 172 173 169 168 169 175